owner,sensor,date,latitude,longitude,vertical_datum,sea_water_practical_salinity,qcFlag 
NERRS,ioos:station:NOAA.NERRS:marcewq:1,2015-09-01T00:30:00Z,28.1323,-97.0344,0.0,22.7,1111122 
NERRS,ioos:station:NOAA.NERRS:marcewq:1,2015-09-01T01:30:00Z,28.1323,-97.0344,0.0,23.7,1111122 
NERRS,ioos:station:NOAA.NERRS:marcewq:1,2015-09-01T02:30:00Z,28.1323,-97.0344,0.0,24.1,1111122 
NERRS,ioos:station:NOAA.NERRS:marcewq:1,2015-09-01T03:30:00Z,28.1323,-97.0344,0.0,24.2,1111122 
NERRS,ioos:station:NOAA.NERRS:marcewq:1,2015-09-01T04:30:00Z,28.1323,-97.0344,0.0,24.2,1111122 
NERRS,ioos:station:NOAA.NERRS:marcewq:1,2015-09-01T05:30:00Z,28.1323,-97.0344,0.0,24.2,1111122 
NERRS,ioos:station:NOAA.NERRS:marcewq:1,2015-09-01T08:30:00Z,28.1323,-97.0344,0.0,21.0,1111122 
NERRS,ioos:station:NOAA.NERRS:marcewq:1,2015-09-01T09:30:00Z,28.1323,-97.0344,0.0,19.6,1111122 
NERRS,ioos:station:NOAA.NERRS:marcewq:1,2015-09-01T10:30:00Z,28.1323,-97.0344,0.0,19.2,1111122 
NERRS,ioos:station:NOAA.NERRS:marcewq:1,2015-09-01T12:00:00Z,28.1323,-97.0344,0.0,23.5,1111122 
NERRS,ioos:station:NOAA.NERRS:marcewq:1,2015-09-01T12:30:00Z,28.1323,-97.0344,0.0,22.1,1111122 
NERRS,ioos:station:NOAA.NERRS:marcewq:1,2015-09-01T14:30:00Z,28.1323,-97.0344,0.0,24.2,1111122 
NERRS,ioos:station:NOAA.NERRS:marcewq:1,2015-09-01T15:30:00Z,28.1323,-97.0344,0.0,24.5,1111122 
NERRS,ioos:station:NOAA.NERRS:marcewq:1,2015-09-01T16:30:00Z,28.1323,-97.0344,0.0,24.4,1111122 
NERRS,ioos:station:NOAA.NERRS:marcewq:1,2015-09-01T17:30:00Z,28.1323,-97.0344,0.0,23.4,1111122 
NERRS,ioos:station:NOAA.NERRS:marcewq:1,2015-09-01T18:30:00Z,28.1323,-97.0344,0.0,19.8,1111122 
NERRS,ioos:station:NOAA.NERRS:marcewq:1,2015-09-01T19:30:00Z,28.1323,-97.0344,0.0,19.8,1111122 
NERRS,ioos:station:NOAA.NERRS:marcewq:1,2015-09-01T20:30:00Z,28.1323,-97.0344,0.0,22.6,1111122 
NERRS,ioos:station:NOAA.NERRS:marcewq:1,2015-09-01T21:30:00Z,28.1323,-97.0344,0.0,21.2,1111122 
NERRS,ioos:station:NOAA.NERRS:marcewq:1,2015-09-01T22:30:00Z,28.1323,-97.0344,0.0,21.6,1111122 
NERRS,ioos:station:NOAA.NERRS:marcewq:1,2015-09-01T23:30:00Z,28.1323,-97.0344,0.0,20.7,1111122 
NERRS,ioos:station:NOAA.NERRS:marcewq:1,2015-09-02T00:30:00Z,28.1323,-97.0344,0.0,22.0,1111122 
NERRS,ioos:station:NOAA.NERRS:marcewq:1,2015-09-02T01:30:00Z,28.1323,-97.0344,0.0,22.6,1111122 
NERRS,ioos:station:NOAA.NERRS:marcewq:1,2015-09-02T02:30:00Z,28.1323,-97.0344,0.0,23.0,1111122 
NERRS,ioos:station:NOAA.NERRS:marcewq:1,2015-09-02T03:30:00Z,28.1323,-97.0344,0.0,23.5,1111122 
NERRS,ioos:station:NOAA.NERRS:marcewq:1,2015-09-02T04:30:00Z,28.1323,-97.0344,0.0,23.5,1111122 
NERRS,ioos:station:NOAA.NERRS:marcewq:1,2015-09-02T05:30:00Z,28.1323,-97.0344,0.0,23.1,1111122 
NERRS,ioos:station:NOAA.NERRS:marcewq:1,2015-09-02T06:30:00Z,28.1323,-97.0344,0.0,23.0,1111122 
NERRS,ioos:station:NOAA.NERRS:marcewq:1,2015-09-02T08:00:00Z,28.1323,-97.0344,0.0,22.7,1111122 
NERRS,ioos:station:NOAA.NERRS:marcewq:1,2015-09-02T09:30:00Z,28.1323,-97.0344,0.0,21.2,1111122 
NERRS,ioos:station:NOAA.NERRS:marcewq:1,2015-09-02T10:30:00Z,28.1323,-97.0344,0.0,19.7,1111122 
NERRS,ioos:station:NOAA.NERRS:marcewq:1,2015-09-02T11:30:00Z,28.1323,-97.0344,0.0,22.7,1111122 
NERRS,ioos:station:NOAA.NERRS:marcewq:1,2015-09-02T12:30:00Z,28.1323,-97.0344,0.0,23.2,1111122 
NERRS,ioos:station:NOAA.NERRS:marcewq:1,2015-09-02T13:30:00Z,28.1323,-97.0344,0.0,23.2,1111122 
NERRS,ioos:station:NOAA.NERRS:marcewq:1,2015-09-02T14:30:00Z,28.1323,-97.0344,0.0,22.5,1111122 
NERRS,ioos:station:NOAA.NERRS:marcewq:1,2015-09-02T16:00:00Z,28.1323,-97.0344,0.0,21.4,1111122 
NERRS,ioos:station:NOAA.NERRS:marcewq:1,2015-09-02T16:30:00Z,28.1323,-97.0344,0.0,21.8,1111122 
NERRS,ioos:station:NOAA.NERRS:marcewq:1,2015-09-02T18:00:00Z,28.1323,-97.0344,0.0,20.1,1111122 
NERRS,ioos:station:NOAA.NERRS:marcewq:1,2015-09-02T18:30:00Z,28.1323,-97.0344,0.0,21.4,1111122 
NERRS,ioos:station:NOAA.NERRS:marcewq:1,2015-09-02T19:30:00Z,28.1323,-97.0344,0.0,19.9,1111122 
NERRS,ioos:station:NOAA.NERRS:marcewq:1,2015-09-02T20:30:00Z,28.1323,-97.0344,0.0,19.1,1111122 
NERRS,ioos:station:NOAA.NERRS:marcewq:1,2015-09-02T21:30:00Z,28.1323,-97.0344,0.0,18.7,1111122 
NERRS,ioos:station:NOAA.NERRS:marcewq:1,2015-09-02T22:30:00Z,28.1323,-97.0344,0.0,18.1,1111122 
NERRS,ioos:station:NOAA.NERRS:marcewq:1,2015-09-02T23:30:00Z,28.1323,-97.0344,0.0,18.1,1111122 
NERRS,ioos:station:NOAA.NERRS:marcewq:1,2015-09-03T00:30:00Z,28.1323,-97.0344,0.0,17.6,1111122 
NERRS,ioos:station:NOAA.NERRS:marcewq:1,2015-09-03T01:30:00Z,28.1323,-97.0344,0.0,19.4,1111122 
NERRS,ioos:station:NOAA.NERRS:marcewq:1,2015-09-03T02:30:00Z,28.1323,-97.0344,0.0,20.5,1111122 
NERRS,ioos:station:NOAA.NERRS:marcewq:1,2015-09-03T03:30:00Z,28.1323,-97.0344,0.0,20.7,1111122 
NERRS,ioos:station:NOAA.NERRS:marcewq:1,2015-09-03T04:30:00Z,28.1323,-97.0344,0.0,21.4,1111122 
NERRS,ioos:station:NOAA.NERRS:marcewq:1,2015-09-03T05:30:00Z,28.1323,-97.0344,0.0,21.9,1111122 
NERRS,ioos:station:NOAA.NERRS:marcewq:1,2015-09-03T08:00:00Z,28.1323,-97.0344,0.0,23.6,1111122 
NERRS,ioos:station:NOAA.NERRS:marcewq:1,2015-09-03T08:30:00Z,28.1323,-97.0344,0.0,23.7,1111122 
NERRS,ioos:station:NOAA.NERRS:marcewq:1,2015-09-03T09:30:00Z,28.1323,-97.0344,0.0,22.9,1111122 
NERRS,ioos:station:NOAA.NERRS:marcewq:1,2015-09-03T10:30:00Z,28.1323,-97.0344,0.0,21.6,1111122 
NERRS,ioos:station:NOAA.NERRS:marcewq:1,2015-09-03T11:30:00Z,28.1323,-97.0344,0.0,23.4,1111122 
NERRS,ioos:station:NOAA.NERRS:marcewq:1,2015-09-03T14:30:00Z,28.1323,-97.0344,0.0,24.9,1111122 
NERRS,ioos:station:NOAA.NERRS:marcewq:1,2015-09-03T15:30:00Z,28.1323,-97.0344,0.0,24.0,1111122 
NERRS,ioos:station:NOAA.NERRS:marcewq:1,2015-09-03T18:00:00Z,28.1323,-97.0344,0.0,20.4,1111122 
NERRS,ioos:station:NOAA.NERRS:marcewq:1,2015-09-03T18:30:00Z,28.1323,-97.0344,0.0,20.1,1111122 
NERRS,ioos:station:NOAA.NERRS:marcewq:1,2015-09-03T19:30:00Z,28.1323,-97.0344,0.0,19.9,1111122 
NERRS,ioos:station:NOAA.NERRS:marcewq:1,2015-09-03T20:30:00Z,28.1323,-97.0344,0.0,19.1,1111122 
NERRS,ioos:station:NOAA.NERRS:marcewq:1,2015-09-03T23:00:00Z,28.1323,-97.0344,0.0,21.5,1111122 
NERRS,ioos:station:NOAA.NERRS:marcewq:1,2015-09-03T23:30:00Z,28.1323,-97.0344,0.0,19.8,1111122 
NERRS,ioos:station:NOAA.NERRS:marcewq:1,2015-09-04T00:30:00Z,28.1323,-97.0344,0.0,17.7,1111122 
NERRS,ioos:station:NOAA.NERRS:marcewq:1,2015-09-04T01:30:00Z,28.1323,-97.0344,0.0,19.4,1111122 
NERRS,ioos:station:NOAA.NERRS:marcewq:1,2015-09-04T02:30:00Z,28.1323,-97.0344,0.0,18.7,1111122 
NERRS,ioos:station:NOAA.NERRS:marcewq:1,2015-09-04T04:00:00Z,28.1323,-97.0344,0.0,18.5,1111122 
NERRS,ioos:station:NOAA.NERRS:marcewq:1,2015-09-04T04:30:00Z,28.1323,-97.0344,0.0,19.5,1111122 
NERRS,ioos:station:NOAA.NERRS:marcewq:1,2015-09-04T06:00:00Z,28.1323,-97.0344,0.0,20.6,1111122 
NERRS,ioos:station:NOAA.NERRS:marcewq:1,2015-09-04T06:30:00Z,28.1323,-97.0344,0.0,20.5,1111122 
NERRS,ioos:station:NOAA.NERRS:marcewq:1,2015-09-04T08:30:00Z,28.1323,-97.0344,0.0,22.3,1111122 
NERRS,ioos:station:NOAA.NERRS:marcewq:1,2015-09-04T09:30:00Z,28.1323,-97.0344,0.0,23.0,1111122 
NERRS,ioos:station:NOAA.NERRS:marcewq:1,2015-09-04T10:30:00Z,28.1323,-97.0344,0.0,23.4,1111122 
NERRS,ioos:station:NOAA.NERRS:marcewq:1,2015-09-04T11:00:00Z,28.1323,-97.0344,0.0,23.0,1111122 
NERRS,ioos:station:NOAA.NERRS:marcewq:1,2015-09-04T13:30:00Z,28.1323,-97.0344,0.0,23.8,1111122 
NERRS,ioos:station:NOAA.NERRS:marcewq:1,2015-09-04T14:30:00Z,28.1323,-97.0344,0.0,23.8,1111122 
NERRS,ioos:station:NOAA.NERRS:marcewq:1,2015-09-04T16:30:00Z,28.1323,-97.0344,0.0,22.4,1111122 
NERRS,ioos:station:NOAA.NERRS:marcewq:1,2015-09-04T17:30:00Z,28.1323,-97.0344,0.0,18.9,1111122 
NERRS,ioos:station:NOAA.NERRS:marcewq:1,2015-09-04T18:30:00Z,28.1323,-97.0344,0.0,18.1,1111122 
NERRS,ioos:station:NOAA.NERRS:marcewq:1,2015-09-04T19:30:00Z,28.1323,-97.0344,0.0,16.9,1111122 
NERRS,ioos:station:NOAA.NERRS:marcewq:1,2015-09-04T20:30:00Z,28.1323,-97.0344,0.0,17.0,1111122 
NERRS,ioos:station:NOAA.NERRS:marcewq:1,2015-09-04T21:30:00Z,28.1323,-97.0344,0.0,17.0,1111122 
NERRS,ioos:station:NOAA.NERRS:marcewq:1,2015-09-04T23:00:00Z,28.1323,-97.0344,0.0,17.4,1111122 
NERRS,ioos:station:NOAA.NERRS:marcewq:1,2015-09-04T23:30:00Z,28.1323,-97.0344,0.0,17.5,1111122 
NERRS,ioos:station:NOAA.NERRS:marcewq:1,2015-09-05T01:00:00Z,28.1323,-97.0344,0.0,17.0,1111122 
NERRS,ioos:station:NOAA.NERRS:marcewq:1,2015-09-05T01:30:00Z,28.1323,-97.0344,0.0,17.1,1111122 
NERRS,ioos:station:NOAA.NERRS:marcewq:1,2015-09-05T03:00:00Z,28.1323,-97.0344,0.0,16.8,1111122 
NERRS,ioos:station:NOAA.NERRS:marcewq:1,2015-09-05T03:30:00Z,28.1323,-97.0344,0.0,16.7,1111122 
NERRS,ioos:station:NOAA.NERRS:marcewq:1,2015-09-05T05:00:00Z,28.1323,-97.0344,0.0,16.9,1111122 
NERRS,ioos:station:NOAA.NERRS:marcewq:1,2015-09-05T06:00:00Z,28.1323,-97.0344,0.0,16.8,1111122 
NERRS,ioos:station:NOAA.NERRS:marcewq:1,2015-09-05T06:30:00Z,28.1323,-97.0344,0.0,16.7,1111122 
NERRS,ioos:station:NOAA.NERRS:marcewq:1,2015-09-05T08:30:00Z,28.1323,-97.0344,0.0,18.2,1111122 
NERRS,ioos:station:NOAA.NERRS:marcewq:1,2015-09-05T09:30:00Z,28.1323,-97.0344,0.0,19.3,1111122 
NERRS,ioos:station:NOAA.NERRS:marcewq:1,2015-09-05T10:30:00Z,28.1323,-97.0344,0.0,19.7,1111122 
NERRS,ioos:station:NOAA.NERRS:marcewq:1,2015-09-05T12:30:00Z,28.1323,-97.0344,0.0,19.6,1111122 
NERRS,ioos:station:NOAA.NERRS:marcewq:1,2015-09-05T13:30:00Z,28.1323,-97.0344,0.0,18.8,1111122 
NERRS,ioos:station:NOAA.NERRS:marcewq:1,2015-09-05T14:30:00Z,28.1323,-97.0344,0.0,18.6,1111122 
NERRS,ioos:station:NOAA.NERRS:marcewq:1,2015-09-05T15:30:00Z,28.1323,-97.0344,0.0,18.3,1111122 
NERRS,ioos:station:NOAA.NERRS:marcewq:1,2015-09-05T17:30:00Z,28.1323,-97.0344,0.0,17.4,1111122 
NERRS,ioos:station:NOAA.NERRS:marcewq:1,2015-09-05T18:30:00Z,28.1323,-97.0344,0.0,17.4,1111122 
NERRS,ioos:station:NOAA.NERRS:marcewq:1,2015-09-05T20:30:00Z,28.1323,-97.0344,0.0,16.6,1111122 
NERRS,ioos:station:NOAA.NERRS:marcewq:1,2015-09-05T21:30:00Z,28.1323,-97.0344,0.0,16.6,1111122 
NERRS,ioos:station:NOAA.NERRS:marcewq:1,2015-09-05T22:30:00Z,28.1323,-97.0344,0.0,16.5,1111122 
NERRS,ioos:station:NOAA.NERRS:marcewq:1,2015-09-05T23:30:00Z,28.1323,-97.0344,0.0,16.8,1111122 
NERRS,ioos:station:NOAA.NERRS:marcewq:1,2015-09-06T00:30:00Z,28.1323,-97.0344,0.0,16.8,1111122 
NERRS,ioos:station:NOAA.NERRS:marcewq:1,2015-09-06T01:30:00Z,28.1323,-97.0344,0.0,17.0,1111122 
NERRS,ioos:station:NOAA.NERRS:marcewq:1,2015-09-06T02:30:00Z,28.1323,-97.0344,0.0,16.9,1111122 
NERRS,ioos:station:NOAA.NERRS:marcewq:1,2015-09-06T03:30:00Z,28.1323,-97.0344,0.0,17.0,1111122 
NERRS,ioos:station:NOAA.NERRS:marcewq:1,2015-09-06T05:00:00Z,28.1323,-97.0344,0.0,17.0,1111122 
NERRS,ioos:station:NOAA.NERRS:marcewq:1,2015-09-06T05:30:00Z,28.1323,-97.0344,0.0,16.9,1111122 
NERRS,ioos:station:NOAA.NERRS:marcewq:1,2015-09-06T06:30:00Z,28.1323,-97.0344,0.0,16.8,1111122 
NERRS,ioos:station:NOAA.NERRS:marcewq:1,2015-09-06T08:00:00Z,28.1323,-97.0344,0.0,16.8,1111122 
NERRS,ioos:station:NOAA.NERRS:marcewq:1,2015-09-06T08:30:00Z,28.1323,-97.0344,0.0,16.8,1111122 
NERRS,ioos:station:NOAA.NERRS:marcewq:1,2015-09-06T09:30:00Z,28.1323,-97.0344,0.0,17.3,1111122 
NERRS,ioos:station:NOAA.NERRS:marcewq:1,2015-09-06T10:30:00Z,28.1323,-97.0344,0.0,17.5,1111122 
NERRS,ioos:station:NOAA.NERRS:marcewq:1,2015-09-06T11:30:00Z,28.1323,-97.0344,0.0,17.7,1111122 
NERRS,ioos:station:NOAA.NERRS:marcewq:1,2015-09-06T12:30:00Z,28.1323,-97.0344,0.0,17.5,1111122 
NERRS,ioos:station:NOAA.NERRS:marcewq:1,2015-09-06T13:30:00Z,28.1323,-97.0344,0.0,17.7,1111122 
NERRS,ioos:station:NOAA.NERRS:marcewq:1,2015-09-06T14:30:00Z,28.1323,-97.0344,0.0,17.7,1111122 
NERRS,ioos:station:NOAA.NERRS:marcewq:1,2015-09-06T15:30:00Z,28.1323,-97.0344,0.0,17.8,1111122 
NERRS,ioos:station:NOAA.NERRS:marcewq:1,2015-09-06T16:30:00Z,28.1323,-97.0344,0.0,17.6,1111122 
NERRS,ioos:station:NOAA.NERRS:marcewq:1,2015-09-06T17:30:00Z,28.1323,-97.0344,0.0,16.7,1111122 
NERRS,ioos:station:NOAA.NERRS:marcewq:1,2015-09-06T18:30:00Z,28.1323,-97.0344,0.0,17.4,1111122 
NERRS,ioos:station:NOAA.NERRS:marcewq:1,2015-09-06T19:30:00Z,28.1323,-97.0344,0.0,16.0,1111122 
NERRS,ioos:station:NOAA.NERRS:marcewq:1,2015-09-06T20:30:00Z,28.1323,-97.0344,0.0,17.3,1111122 
NERRS,ioos:station:NOAA.NERRS:marcewq:1,2015-09-06T21:30:00Z,28.1323,-97.0344,0.0,17.0,1111122 
NERRS,ioos:station:NOAA.NERRS:marcewq:1,2015-09-06T22:30:00Z,28.1323,-97.0344,0.0,16.9,1111122 
NERRS,ioos:station:NOAA.NERRS:marcewq:1,2015-09-06T23:30:00Z,28.1323,-97.0344,0.0,17.0,1111122 
NERRS,ioos:station:NOAA.NERRS:marcewq:1,2015-09-07T00:30:00Z,28.1323,-97.0344,0.0,17.2,1111122 
NERRS,ioos:station:NOAA.NERRS:marcewq:1,2015-09-07T01:30:00Z,28.1323,-97.0344,0.0,17.3,1111122 
NERRS,ioos:station:NOAA.NERRS:marcewq:1,2015-09-07T02:30:00Z,28.1323,-97.0344,0.0,17.3,1111122 
NERRS,ioos:station:NOAA.NERRS:marcewq:1,2015-09-07T03:30:00Z,28.1323,-97.0344,0.0,17.4,1111122 
NERRS,ioos:station:NOAA.NERRS:marcewq:1,2015-09-07T04:30:00Z,28.1323,-97.0344,0.0,17.0,1111122 
NERRS,ioos:station:NOAA.NERRS:marcewq:1,2015-09-07T05:30:00Z,28.1323,-97.0344,0.0,16.8,1111122 
NERRS,ioos:station:NOAA.NERRS:marcewq:1,2015-09-07T06:30:00Z,28.1323,-97.0344,0.0,16.7,1111122 
NERRS,ioos:station:NOAA.NERRS:marcewq:1,2015-09-07T08:00:00Z,28.1323,-97.0344,0.0,16.6,1111122 
NERRS,ioos:station:NOAA.NERRS:marcewq:1,2015-09-07T08:30:00Z,28.1323,-97.0344,0.0,16.7,1111122 
NERRS,ioos:station:NOAA.NERRS:marcewq:1,2015-09-07T09:30:00Z,28.1323,-97.0344,0.0,17.1,1111122 
NERRS,ioos:station:NOAA.NERRS:marcewq:1,2015-09-07T11:30:00Z,28.1323,-97.0344,0.0,17.6,1111122 
NERRS,ioos:station:NOAA.NERRS:marcewq:1,2015-09-07T12:30:00Z,28.1323,-97.0344,0.0,17.7,1111122 
NERRS,ioos:station:NOAA.NERRS:marcewq:1,2015-09-07T13:30:00Z,28.1323,-97.0344,0.0,17.7,1111122 
NERRS,ioos:station:NOAA.NERRS:marcewq:1,2015-09-07T14:30:00Z,28.1323,-97.0344,0.0,17.9,1111122 
NERRS,ioos:station:NOAA.NERRS:marcewq:1,2015-09-07T15:30:00Z,28.1323,-97.0344,0.0,18.0,1111122 
NERRS,ioos:station:NOAA.NERRS:marcewq:1,2015-09-07T16:30:00Z,28.1323,-97.0344,0.0,17.7,1111122 
NERRS,ioos:station:NOAA.NERRS:marcewq:1,2015-09-07T17:30:00Z,28.1323,-97.0344,0.0,19.3,1111122 
NERRS,ioos:station:NOAA.NERRS:marcewq:1,2015-09-07T19:00:00Z,28.1323,-97.0344,0.0,19.2,1111122 
NERRS,ioos:station:NOAA.NERRS:marcewq:1,2015-09-07T19:30:00Z,28.1323,-97.0344,0.0,19.3,1111122 
NERRS,ioos:station:NOAA.NERRS:marcewq:1,2015-09-07T20:30:00Z,28.1323,-97.0344,0.0,18.0,1111122 
NERRS,ioos:station:NOAA.NERRS:marcewq:1,2015-09-07T21:30:00Z,28.1323,-97.0344,0.0,17.8,1111122 
NERRS,ioos:station:NOAA.NERRS:marcewq:1,2015-09-07T23:00:00Z,28.1323,-97.0344,0.0,17.6,1111122 
NERRS,ioos:station:NOAA.NERRS:marcewq:1,2015-09-07T23:30:00Z,28.1323,-97.0344,0.0,17.5,1111122 
NERRS,ioos:station:NOAA.NERRS:marcewq:1,2015-09-08T00:30:00Z,28.1323,-97.0344,0.0,17.5,1111122 
NERRS,ioos:station:NOAA.NERRS:marcewq:1,2015-09-08T01:30:00Z,28.1323,-97.0344,0.0,17.3,1111122 
NERRS,ioos:station:NOAA.NERRS:marcewq:1,2015-09-08T02:30:00Z,28.1323,-97.0344,0.0,17.2,1111122 
NERRS,ioos:station:NOAA.NERRS:marcewq:1,2015-09-08T03:30:00Z,28.1323,-97.0344,0.0,17.2,1111122 
NERRS,ioos:station:NOAA.NERRS:marcewq:1,2015-09-08T04:30:00Z,28.1323,-97.0344,0.0,17.1,1111122 
NERRS,ioos:station:NOAA.NERRS:marcewq:1,2015-09-08T05:30:00Z,28.1323,-97.0344,0.0,17.1,1111122 
NERRS,ioos:station:NOAA.NERRS:marcewq:1,2015-09-08T06:30:00Z,28.1323,-97.0344,0.0,17.2,1111122 
NERRS,ioos:station:NOAA.NERRS:marcewq:1,2015-09-08T08:00:00Z,28.1323,-97.0344,0.0,17.0,1111122 
NERRS,ioos:station:NOAA.NERRS:marcewq:1,2015-09-08T08:30:00Z,28.1323,-97.0344,0.0,17.0,1111122 
NERRS,ioos:station:NOAA.NERRS:marcewq:1,2015-09-08T09:30:00Z,28.1323,-97.0344,0.0,17.1,1111122 
NERRS,ioos:station:NOAA.NERRS:marcewq:1,2015-09-08T10:30:00Z,28.1323,-97.0344,0.0,17.8,1111122 
NERRS,ioos:station:NOAA.NERRS:marcewq:1,2015-09-08T11:30:00Z,28.1323,-97.0344,0.0,18.0,1111122 
NERRS,ioos:station:NOAA.NERRS:marcewq:1,2015-09-08T12:30:00Z,28.1323,-97.0344,0.0,18.2,1111122 
NERRS,ioos:station:NOAA.NERRS:marcewq:1,2015-09-08T13:30:00Z,28.1323,-97.0344,0.0,18.5,1111122 
NERRS,ioos:station:NOAA.NERRS:marcewq:1,2015-09-08T15:30:00Z,28.1323,-97.0344,0.0,18.9,1111122 
NERRS,ioos:station:NOAA.NERRS:marcewq:1,2015-09-08T16:30:00Z,28.1323,-97.0344,0.0,17.8,1111122 
NERRS,ioos:station:NOAA.NERRS:marcewq:1,2015-09-08T17:30:00Z,28.1323,-97.0344,0.0,19.3,1111122 
NERRS,ioos:station:NOAA.NERRS:marcewq:1,2015-09-08T19:00:00Z,28.1323,-97.0344,0.0,19.2,1111122 
NERRS,ioos:station:NOAA.NERRS:marcewq:1,2015-09-08T19:30:00Z,28.1323,-97.0344,0.0,20.1,1111122 
NERRS,ioos:station:NOAA.NERRS:marcewq:1,2015-09-08T20:30:00Z,28.1323,-97.0344,0.0,20.1,1111122 
NERRS,ioos:station:NOAA.NERRS:marcewq:1,2015-09-08T21:30:00Z,28.1323,-97.0344,0.0,20.9,1111122 
NERRS,ioos:station:NOAA.NERRS:marcewq:1,2015-09-08T23:30:00Z,28.1323,-97.0344,0.0,20.9,1111122 
NERRS,ioos:station:NOAA.NERRS:marcewq:1,2015-09-09T00:30:00Z,28.1323,-97.0344,0.0,18.8,1111122 
NERRS,ioos:station:NOAA.NERRS:marcewq:1,2015-09-09T01:30:00Z,28.1323,-97.0344,0.0,17.5,1111122 
NERRS,ioos:station:NOAA.NERRS:marcewq:1,2015-09-09T02:30:00Z,28.1323,-97.0344,0.0,17.1,1111122 
NERRS,ioos:station:NOAA.NERRS:marcewq:1,2015-09-09T03:30:00Z,28.1323,-97.0344,0.0,17.6,1111122 
NERRS,ioos:station:NOAA.NERRS:marcewq:1,2015-09-09T04:30:00Z,28.1323,-97.0344,0.0,18.3,1111122 
NERRS,ioos:station:NOAA.NERRS:marcewq:1,2015-09-09T06:30:00Z,28.1323,-97.0344,0.0,17.9,1111122 
NERRS,ioos:station:NOAA.NERRS:marcewq:1,2015-09-09T08:00:00Z,28.1323,-97.0344,0.0,17.8,1111122 
NERRS,ioos:station:NOAA.NERRS:marcewq:1,2015-09-09T08:30:00Z,28.1323,-97.0344,0.0,17.9,1111122 
NERRS,ioos:station:NOAA.NERRS:marcewq:1,2015-09-09T09:30:00Z,28.1323,-97.0344,0.0,18.6,1111122 
NERRS,ioos:station:NOAA.NERRS:marcewq:1,2015-09-09T10:30:00Z,28.1323,-97.0344,0.0,19.3,1111122 
NERRS,ioos:station:NOAA.NERRS:marcewq:1,2015-09-09T11:30:00Z,28.1323,-97.0344,0.0,20.1,1111122 
NERRS,ioos:station:NOAA.NERRS:marcewq:1,2015-09-09T12:30:00Z,28.1323,-97.0344,0.0,20.7,1111122 
NERRS,ioos:station:NOAA.NERRS:marcewq:1,2015-09-09T13:30:00Z,28.1323,-97.0344,0.0,19.6,1111122 
NERRS,ioos:station:NOAA.NERRS:marcewq:1,2015-09-09T14:30:00Z,28.1323,-97.0344,0.0,21.2,1111122 
NERRS,ioos:station:NOAA.NERRS:marcewq:1,2015-09-09T15:30:00Z,28.1323,-97.0344,0.0,21.4,1111122 
NERRS,ioos:station:NOAA.NERRS:marcewq:1,2015-09-09T16:30:00Z,28.1323,-97.0344,0.0,20.2,1111122 
NERRS,ioos:station:NOAA.NERRS:marcewq:1,2015-09-09T17:30:00Z,28.1323,-97.0344,0.0,21.5,1111122 
NERRS,ioos:station:NOAA.NERRS:marcewq:1,2015-09-09T18:30:00Z,28.1323,-97.0344,0.0,20.1,1111122 
NERRS,ioos:station:NOAA.NERRS:marcewq:1,2015-09-09T19:30:00Z,28.1323,-97.0344,0.0,21.4,1111122 
NERRS,ioos:station:NOAA.NERRS:marcewq:1,2015-09-09T20:30:00Z,28.1323,-97.0344,0.0,21.5,1111122 
NERRS,ioos:station:NOAA.NERRS:marcewq:1,2015-09-09T21:30:00Z,28.1323,-97.0344,0.0,21.8,1111122 
NERRS,ioos:station:NOAA.NERRS:marcewq:1,2015-09-09T23:00:00Z,28.1323,-97.0344,0.0,20.9,1111122 
NERRS,ioos:station:NOAA.NERRS:marcewq:1,2015-09-10T00:00:00Z,28.1323,-97.0344,0.0,20.2,1111122 
NERRS,ioos:station:NOAA.NERRS:marcewq:1,2015-09-10T00:30:00Z,28.1323,-97.0344,0.0,19.8,1111122 
NERRS,ioos:station:NOAA.NERRS:marcewq:1,2015-09-10T01:30:00Z,28.1323,-97.0344,0.0,18.7,1111122 
NERRS,ioos:station:NOAA.NERRS:marcewq:1,2015-09-10T02:30:00Z,28.1323,-97.0344,0.0,18.3,1111122 
NERRS,ioos:station:NOAA.NERRS:marcewq:1,2015-09-10T03:30:00Z,28.1323,-97.0344,0.0,18.2,1111122 
NERRS,ioos:station:NOAA.NERRS:marcewq:1,2015-09-10T04:30:00Z,28.1323,-97.0344,0.0,18.8,1111122 
NERRS,ioos:station:NOAA.NERRS:marcewq:1,2015-09-10T05:30:00Z,28.1323,-97.0344,0.0,18.9,1111122 
NERRS,ioos:station:NOAA.NERRS:marcewq:1,2015-09-10T06:30:00Z,28.1323,-97.0344,0.0,18.3,1111122 
NERRS,ioos:station:NOAA.NERRS:marcewq:1,2015-09-10T08:00:00Z,28.1323,-97.0344,0.0,18.2,1111122 
NERRS,ioos:station:NOAA.NERRS:marcewq:1,2015-09-10T08:30:00Z,28.1323,-97.0344,0.0,18.3,1111122 
NERRS,ioos:station:NOAA.NERRS:marcewq:1,2015-09-10T09:30:00Z,28.1323,-97.0344,0.0,18.0,1111122 
NERRS,ioos:station:NOAA.NERRS:marcewq:1,2015-09-10T10:30:00Z,28.1323,-97.0344,0.0,17.7,1111122 
NERRS,ioos:station:NOAA.NERRS:marcewq:1,2015-09-10T11:30:00Z,28.1323,-97.0344,0.0,17.5,1111122 
NERRS,ioos:station:NOAA.NERRS:marcewq:1,2015-09-10T12:30:00Z,28.1323,-97.0344,0.0,17.9,1111122 
NERRS,ioos:station:NOAA.NERRS:marcewq:1,2015-09-10T14:30:00Z,28.1323,-97.0344,0.0,17.9,1111122 
NERRS,ioos:station:NOAA.NERRS:marcewq:1,2015-09-10T15:30:00Z,28.1323,-97.0344,0.0,19.2,1111122 
NERRS,ioos:station:NOAA.NERRS:marcewq:1,2015-09-10T16:30:00Z,28.1323,-97.0344,0.0,19.4,1111122 
NERRS,ioos:station:NOAA.NERRS:marcewq:1,2015-09-10T17:30:00Z,28.1323,-97.0344,0.0,19.2,1111122 
NERRS,ioos:station:NOAA.NERRS:marcewq:1,2015-09-10T18:30:00Z,28.1323,-97.0344,0.0,19.2,1111122 
NERRS,ioos:station:NOAA.NERRS:marcewq:1,2015-09-10T19:30:00Z,28.1323,-97.0344,0.0,19.9,1111122 
NERRS,ioos:station:NOAA.NERRS:marcewq:1,2015-09-10T20:30:00Z,28.1323,-97.0344,0.0,20.6,1111122 
NERRS,ioos:station:NOAA.NERRS:marcewq:1,2015-09-10T21:30:00Z,28.1323,-97.0344,0.0,20.1,1111122 
NERRS,ioos:station:NOAA.NERRS:marcewq:1,2015-09-10T23:30:00Z,28.1323,-97.0344,0.0,19.8,1111122 
NERRS,ioos:station:NOAA.NERRS:marcewq:1,2015-09-11T00:30:00Z,28.1323,-97.0344,0.0,19.0,1111122 
NERRS,ioos:station:NOAA.NERRS:marcewq:1,2015-09-11T01:30:00Z,28.1323,-97.0344,0.0,18.2,1111122 
NERRS,ioos:station:NOAA.NERRS:marcewq:1,2015-09-11T02:30:00Z,28.1323,-97.0344,0.0,17.6,1111122 
NERRS,ioos:station:NOAA.NERRS:marcewq:1,2015-09-11T03:30:00Z,28.1323,-97.0344,0.0,17.1,1111122 
NERRS,ioos:station:NOAA.NERRS:marcewq:1,2015-09-11T04:30:00Z,28.1323,-97.0344,0.0,17.1,1111122 
NERRS,ioos:station:NOAA.NERRS:marcewq:1,2015-09-11T05:30:00Z,28.1323,-97.0344,0.0,17.1,1111122 
NERRS,ioos:station:NOAA.NERRS:marcewq:1,2015-09-11T06:30:00Z,28.1323,-97.0344,0.0,17.0,1111122 
NERRS,ioos:station:NOAA.NERRS:marcewq:1,2015-09-11T08:00:00Z,28.1323,-97.0344,0.0,17.3,1111122 
NERRS,ioos:station:NOAA.NERRS:marcewq:1,2015-09-11T08:30:00Z,28.1323,-97.0344,0.0,17.2,1111122 
NERRS,ioos:station:NOAA.NERRS:marcewq:1,2015-09-11T09:30:00Z,28.1323,-97.0344,0.0,17.3,1111122 
NERRS,ioos:station:NOAA.NERRS:marcewq:1,2015-09-11T10:30:00Z,28.1323,-97.0344,0.0,17.3,1111122 
NERRS,ioos:station:NOAA.NERRS:marcewq:1,2015-09-11T11:30:00Z,28.1323,-97.0344,0.0,17.2,1111122 
NERRS,ioos:station:NOAA.NERRS:marcewq:1,2015-09-11T12:30:00Z,28.1323,-97.0344,0.0,17.7,1111122 
NERRS,ioos:station:NOAA.NERRS:marcewq:1,2015-09-11T13:30:00Z,28.1323,-97.0344,0.0,18.5,1111122 
NERRS,ioos:station:NOAA.NERRS:marcewq:1,2015-09-11T15:30:00Z,28.1323,-97.0344,0.0,17.6,1111122 
NERRS,ioos:station:NOAA.NERRS:marcewq:1,2015-09-11T16:30:00Z,28.1323,-97.0344,0.0,19.3,1111122 
NERRS,ioos:station:NOAA.NERRS:marcewq:1,2015-09-11T17:30:00Z,28.1323,-97.0344,0.0,18.1,1111122 
NERRS,ioos:station:NOAA.NERRS:marcewq:1,2015-09-11T18:30:00Z,28.1323,-97.0344,0.0,18.6,1111122 
NERRS,ioos:station:NOAA.NERRS:marcewq:1,2015-09-12T05:00:00Z,28.1323,-97.0344,0.0,17.3,1111122 
NERRS,ioos:station:NOAA.NERRS:marcewq:1,2015-09-12T05:30:00Z,28.1323,-97.0344,0.0,17.3,1111122 
NERRS,ioos:station:NOAA.NERRS:marcewq:1,2015-09-12T06:30:00Z,28.1323,-97.0344,0.0,17.6,1111122 
NERRS,ioos:station:NOAA.NERRS:marcewq:1,2015-09-12T08:00:00Z,28.1323,-97.0344,0.0,17.6,1111122 
NERRS,ioos:station:NOAA.NERRS:marcewq:1,2015-09-12T08:30:00Z,28.1323,-97.0344,0.0,17.6,1111122 
NERRS,ioos:station:NOAA.NERRS:marcewq:1,2015-09-12T09:30:00Z,28.1323,-97.0344,0.0,17.6,1111122 
NERRS,ioos:station:NOAA.NERRS:marcewq:1,2015-09-12T10:30:00Z,28.1323,-97.0344,0.0,17.5,1111122 
NERRS,ioos:station:NOAA.NERRS:marcewq:1,2015-09-12T11:30:00Z,28.1323,-97.0344,0.0,17.5,1111122 
NERRS,ioos:station:NOAA.NERRS:marcewq:1,2015-09-12T12:30:00Z,28.1323,-97.0344,0.0,17.5,1111122 
NERRS,ioos:station:NOAA.NERRS:marcewq:1,2015-09-12T13:30:00Z,28.1323,-97.0344,0.0,17.5,1111122 
NERRS,ioos:station:NOAA.NERRS:marcewq:1,2015-09-12T14:30:00Z,28.1323,-97.0344,0.0,17.5,1111122 
NERRS,ioos:station:NOAA.NERRS:marcewq:1,2015-09-12T15:30:00Z,28.1323,-97.0344,0.0,17.5,1111122 
NERRS,ioos:station:NOAA.NERRS:marcewq:1,2015-09-12T16:30:00Z,28.1323,-97.0344,0.0,17.5,1111122 